{"data":{"norad_id":58765,"intl_designator":"2024-011A","name":"STARLINK-31127","alt_names":[],"object_type":"PAYLOAD","status":"ACTIVE","operator":null,"country":"US","launch_date":"2024-01-14","launch_site_code":"AFWTR","launch_vehicle":null,"mission":null,"orbit_class":"UNKNOWN","rcs_meters":null,"size_class":null,"mass_kg":null,"dimensions":null,"purposes":["comms"],"wikipedia_slug":null,"has_3d_model":false,"image_url":null,"decayed_at":null,"tle_current":{"epoch":"2026-09-20T22:02:23.373312Z","epoch_age_seconds":116367,"freshness":"FRESH","line1":"1 58765U 24011A   26263.91832608  .00009567  00000+0  29391-3 0  9998","line2":"2 58765  53.1581 185.9413 0001500  90.2846 269.8329 15.34400841150175","mean_motion":15.34400841,"eccentricity":0.00015,"inclination_deg":53.1581,"raan_deg":185.9413,"arg_perigee_deg":90.2846,"mean_anomaly_deg":269.8329,"bstar":0.00029391,"rev_number":15017,"period_min":93.847706643691,"perigee_km":461.67461491793,"apogee_km":463.7268662401,"semimajor_km":6840.837740579,"source":"CELESTRAK","updated_at":"2026-09-21T09:00:33.956624Z"}}}